Location: Starlight Observatory
(38.4029°N, 85.8936°W)
Time: 20:47:23
(UTC-04:00)

Iridium 62 - Visible Passes

Search period start: 26 March 2017 00:00
Search period end: 05 April 2017 00:00
Orbit: 776 x 779 km, 86.4° (Epoch: 25 March)

Date Brightness Start Highest point End Pass type
(mag) Time Alt. Az. Time Alt. Az. Time Alt. Az.
26 Mar 8.5 05:40:58 10° SE 05:44:37 20° E 05:48:16 10° NE visible
27 Mar 5.8 06:46:10 10° S 06:51:22 82° W 06:56:37 10° N visible
28 Mar 6.7 06:12:52 10° SSE 06:17:54 53° E 06:22:58 10° NNE visible
29 Mar 7.9 05:40:11 10° SE 05:44:34 28° E 05:48:58 10° NNE visible
30 Mar 8.7 05:08:25 10° ESE 05:11:20 15° E 05:14:16 10° NE visible
30 Mar 5.9 06:46:24 10° SSW 06:51:30 56° W 06:56:38 10° N visible
31 Mar 6.0 06:12:46 10° S 06:17:58 78° E 06:23:12 10° N visible
01 Apr 7.1 05:39:42 10° SSE 05:44:33 41° E 05:49:26 10° NNE visible
02 Apr 8.2 05:07:19 10° SE 05:11:16 22° E 05:15:13 10° NNE visible
02 Apr 6.3 06:46:52 10° SSW 06:51:41 38° W 06:56:32 10° NNW visible
03 Apr 8.8 04:36:21 10° E 04:38:05 12° ENE 04:39:50 10° ENE visible
03 Apr 5.7 06:12:53 10° S 06:18:04 72° W 06:23:18 10° N visible
04 Apr 6.3 05:39:28 10° SSE 05:44:35 61° E 05:49:44 10° N visible
